Tracking 30744 objects as of 23-Jun-2025
HD Live streaming from Space Station
objects crossing your sky now

PLATERO

Track PLATERO now!
10-day predictions


NORAD ID: 58262
Int'l Code: 2023-174G
Perigee: 441.3 km
Apogee: 452.0 km
Inclination: 97.4 °
Period: 93.4 minutes
Semi major axis: 6817 km
RCS: Unknown
Launch date: November 11, 2023
Source: United States (US)
Launch site: AIR FORCE WESTERN TEST RANGE (AFWTR)
Your satellite tracking list
Your tracking list is empty




NASA's NSSDC Master Catalog

Two Line Element Set (TLE):
1 58262U 23174G   25172.47543596  .00011409  00000-0  26723-3 0  9998
2 58262  97.4185 254.9637 0007897   5.4098 354.7233 15.42239609 90267
Source of the keplerian elements: AFSPC